[[{"header":{"parameterUnit":"m.s-1","parameterCategory":1,"la1":30.2991,"la2":30.254,"lo1":-89.0895,"lo2":-89.0444,"dy":0.0017,"dx":0.0017,"nx":28,"ny":28,"refTime":"2024-04-27T21:00:00:Z","depth":0,"parameterNumber":2,"parameterNumberName":"U-component_of_WINDS"},"data":[0,0,0,0,0,0,0,0,0,0,0,0,0,0,0,0,0,0,0,0,0,0,0,0,0,0,0,0,0,0,0,0,0,0,0,0,0,0,0,0,0,0,0,0,0,0,0,0,0,0,0,0,0,0,0,0,0,0,-5.0086,-5.0088,0,-5.0208,-5.0209,-5.021,-5.0211,-5.0209,-5.0208,-5.0206,-5.0329,-5.0334,-5.0339,0,0,0,0,0,0,0,0,0,0,0,0,0,-4.9856,-4.986,-5.0086,-5.0088,-5.0089,-5.0207,-5.0209,-5.0211,-5.0211,-5.0209,-5.0207,-5.0206,-5.0328,-5.0333,-5.0339,0,0,0,0,0,0,0,0,0,0,0,0,0,-4.9965,-4.9862,-5.0086,-5.0104,-5.0107,-5.0207,-5.0209,-5.0211,-5.0211,-5.0209,-5.0207,-5.0205,-5.0326,-5.0333,-5.034,-5.043,0,0,-5.0361,-5.0364,0,0,0,0,0,0,0,0,-4.9958,-4.9973,-5.01,-5.0103,-5.0106,-5.0192,-5.0173,-5.0284,-5.0212,-5.0172,-5.0206,-5.0203,-5.0285,-5.0296,-5.0323,-5.0436,-5.0441,-5.0362,-5.0366,-5.0369,-5.0371,0,0,0,0,0,0,0,-4.9951,-4.9968,-5.0134,-5.0102,-5.0105,-5.0106,-5.0119,-5.0194,-5.024,-5.0175,-5.0175,-5.019,-5.0287,-5.0317,-5.0326,-5.0443,-5.0362,-5.0368,-5.0372,-5.0375,-5.0637,-5.064,0,0,0,0,0,0,-4.994,-4.9962,-5.013,-5.0138,-5.0025,-5.0112,-5.0126,-5.0167,-5.0239,-5.0248,-5.0192,-5.0189,-5.0306,-5.0318,-5.0331,-5.0441,-5.0369,-5.0376,-5.038,-5.0634,-5.0638,-5.0641,0,0,0,0,0,0,-4.9935,-4.9955,-5.0125,-5.005,-5.0072,-5.0119,-5.0164,-5.017,-5.02,-5.0252,-5.026,-5.0214,-5.0304,-5.0321,-5.0406,-5.0445,-5.0379,-5.0386,-5.0631,-5.0635,-5.0639,-5.0662,0,0,0,0,0,0,-4.9928,-4.9953,-4.9987,-5.0051,-5.0076,-5.0198,-5.0166,-5.0174,-5.0212,-5.021,-5.0275,-5.0283,-5.0304,-5.0395,-5.0413,-5.0454,-5.0391,-5.0628,-5.0633,-5.0638,-5.0658,-5.0667,-5.0674,0,0,0,0,0,-4.992,-4.9989,-4.9989,-5.0009,-5.012,-5.02,-5.0215,-5.0237,-5.0216,-5.025,-5.0284,-5.0281,-5.0439,-5.0404,-5.0424,-5.0467,-5.0625,-5.0632,-5.0637,-5.0655,-5.0665,-5.0674,0,0,0,0,0,0,-4.9927,-4.9997,-4.9998,-5.0089,-5.0139,-5.02,-5.0245,-5.0247,-5.0304,-5.03,-5.0326,-5.034,-5.0425,-5.0455,-5.0415,-5.056,-5.0529,-5.054,-5.0536,-5.0546,-5.0554,-5.0543,-5.0397,0,0,0,0,0,-4.994,-5.0,-5.0058,-5.0132,-5.0157,-5.0197,-5.0233,-5.0247,-5.0299,-5.032,-5.036,-5.041,-5.0472,-5.0511,-5.057,-5.0664,-5.0678,-5.0704,-5.0712,-5.0718,-5.0726,-5.0778,-5.079,-5.0661,-5.0661,-5.066,0,0,-4.9966,-5.0011,-5.0047,-5.0135,-5.0175,-5.0236,-5.0214,-5.028,-5.0326,-5.033,-5.0412,-5.0444,-5.0502,-5.0592,-5.0634,-5.062,-5.0766,-5.0726,-5.0731,-5.0735,-5.0786,-5.0798,-5.0809,-5.0665,-5.0664,-5.0663,0,0,-5.0043,-5.0084,-5.0151,-5.0193,-5.0254,-5.0281,-5.0297,-5.0359,-5.038,-5.0464,-5.0468,-5.0524,-5.0628,-5.067,-5.0705,-5.0803,-5.0801,-5.0822,-5.0861,-5.0912,-5.0922,-5.0931,-5.0965,-5.0977,-5.083,-5.083,-5.083,0,-5.0067,-5.016,-5.0185,-5.0251,-5.029,-5.0298,-5.0366,-5.0405,-5.0483,-5.0509,-5.0494,-5.0626,-5.0667,-5.0766,-5.079,-5.0819,-5.0838,-5.0812,-5.0919,-5.0928,-5.0937,-5.0969,-5.0982,-5.0832,-5.0831,-5.0831,-5.0831,0,-5.0186,-5.025,-5.0297,-5.0372,-5.0417,-5.0484,-5.052,-5.0562,-5.0573,-5.0601,-5.0687,-5.0737,-5.0806,-5.0832,-5.0842,-5.0934,-5.0923,-5.0913,-5.0883,-5.0951,-5.0981,-5.0994,-5.0834,-5.0834,-5.0833,-5.0833,0,0,-5.0267,-5.0358,-5.0375,-5.041,-5.048,-5.053,-5.0599,-5.0667,-5.0703,-5.0757,-5.0815,-5.0905,-5.0897,-5.0936,-5.0953,-5.0998,-5.1071,-5.0982,-5.0984,-5.0995,-5.1174,-5.1179,-5.1193,-5.1073,-5.1075,-5.1077,-5.1169,0,-5.0351,-5.0471,-5.0498,-5.0602,-5.0662,-5.0672,-5.0732,-5.0782,-5.0811,-5.0867,-5.09,-5.0963,-5.0948,-5.0972,-5.1017,-5.1053,-5.1107,-5.1047,-5.1125,-5.1128,-5.1107,-5.121,-5.1215,-5.1299,-5.1181,-5.1183,-5.1185,0,-5.0463,-5.0521,-5.0631,-5.0695,-5.0721,-5.0774,-5.084,-5.0893,-5.0951,-5.0969,-5.1016,-5.1028,-5.11,-5.1069,-5.1169,-5.1127,-5.1162,-5.1185,-5.1189,-5.1194,-5.1158,-5.1216,-5.1326,-5.1337,-5.1204,-5.1203,-5.1201,0,-5.051,-5.0616,-5.0695,-5.0725,-5.0802,-5.0839,-5.0873,-5.0928,-5.0968,-5.1027,-5.1053,-5.1119,-5.1155,-5.1206,-5.1236,-5.1211,-5.1333,-5.1305,-5.135,-5.1349,-5.1372,-5.137,-5.1487,-5.1399,-5.1399,-5.1399,-5.1398,0,-5.0599,-5.0665,-5.0717,-5.0766,-5.0841,-5.0872,-5.0946,-5.098,-5.103,-5.1086,-5.11,-5.1152,-5.119,-5.1248,-5.1273,-5.1351,-5.1368,-5.1385,-5.139,-5.1382,-5.1379,-5.1402,-5.1396,-5.1402,-5.1401,-5.1401,-5.14,0,-5.0662,-5.0699,-5.0787,-5.0853,-5.0872,-5.0924,-5.0981,-5.1029,-5.1061,-5.1131,-5.115,-5.1199,-5.1268,-5.1304,-5.139,-5.1407,-5.1495,-5.1498,-5.1475,-5.1476,-5.1518,-5.1513,-5.1652,-5.1671,-5.1573,-5.1574,-5.1574,0,-5.0714,-5.0766,-5.0839,-5.0877,-5.0912,-5.0974,-5.1016,-5.105,-5.1092,-5.1163,-5.1203,-5.1273,-5.133,-5.144,-5.1484,-5.155,-5.1554,-5.1598,-5.1563,-5.1554,-5.1552,-5.1548,-5.1553,-5.1603,-5.1604,-5.1604,-5.1605,0,-5.0804,-5.0821,-5.088,-5.0947,-5.0996,-5.105,-5.1104,-5.1135,-5.1178,-5.1225,-5.1296,-5.1341,-5.143,-5.1499,-5.157,-5.1605,-5.1612,-5.1616,-5.163,-5.162,-5.1604,-5.1612,-5.1488,-5.1612,-5.1611,-5.1611,-5.161,-5.161,-5.0862,-5.0908,-5.0967,-5.1033,-5.1078,-5.1128,-5.1176,-5.1215,-5.1275,-5.1349,-5.1367,-5.1442,-5.15,-5.1595,-5.1633,-5.1693,-5.1684,-5.1704,-5.1708,-5.1712,-5.1713,-5.1598,-5.1706,-5.1706,-5.1706,-5.1706,-5.1706,0,-5.095,-5.099,-5.105,-5.1125,-5.1178,-5.1182,-5.1242,-5.1285,-5.1351,-5.1405,-5.1462,-5.1545,-5.1613,-5.1663,-5.1733,-5.1771,-5.1776,-5.1787,-5.1783,-5.1791,-5.1718,-5.1698,-5.1782,-5.1782,-5.1782,-5.1782,-5.1782,-5.1782,-5.1002,-5.1081,-5.1105,-5.1207,-5.1246,-5.1319,-5.1353,-5.14,-5.1443,-5.1535,-5.1591,-5.1624,-5.1677,-5.1751,-5.1814,-5.1827,-5.1851,-5.1863,-5.1876,-5.1805,-5.1797,-5.1789,-5.177,-5.1868,-5.1868,-5.1944,-5.1945,-5.1945]},{"header":{"parameterUnit":"m.s-1","parameterCategory":1,"la1":30.2991,"la2":30.254,"lo1":-89.0895,"lo2":-89.0444,"dy":0.0017,"dx":0.0017,"nx":28,"ny":28,"refTime":"2024-04-27T21:00:00:Z","depth":0,"parameterNumber":3,"parameterNumberName":"V-component_of_WINDS"},"data":[0,0,0,0,0,0,0,0,0,0,0,0,0,0,0,0,0,0,0,0,0,0,0,0,0,0,0,0,0,0,0,0,0,0,0,0,0,0,0,0,0,0,0,0,0,0,0,0,0,0,0,0,0,0,0,0,0,0,5.8637,5.8637,0,5.8636,5.8636,5.8636,5.8633,5.8633,5.8633,5.8633,5.8626,5.8626,5.8626,0,0,0,0,0,0,0,0,0,0,0,0,0,5.8634,5.8634,5.8637,5.8637,5.8637,5.8636,5.8636,5.8636,5.8633,5.8633,5.8633,5.8633,5.8626,5.8626,5.8626,0,0,0,0,0,0,0,0,0,0,0,0,0,5.8634,5.8634,5.8637,5.8635,5.8635,5.8636,5.8636,5.8636,5.8633,5.8633,5.8633,5.8633,5.8626,5.8626,5.8626,5.8626,0,0,5.8625,5.8625,0,0,0,0,0,0,0,0,5.8634,5.8634,5.8636,5.8635,5.8635,5.8634,5.8632,5.8632,5.8633,5.8634,5.8633,5.8633,5.8629,5.8628,5.8628,5.8626,5.8626,5.8625,5.8625,5.8625,5.8625,0,0,0,0,0,0,0,5.8634,5.8634,5.8636,5.8636,5.8635,5.8634,5.8634,5.8632,5.8631,5.8633,5.8633,5.8633,5.8629,5.8628,5.8628,5.8625,5.8625,5.8625,5.8625,5.8625,5.8626,5.8626,0,0,0,0,0,0,5.8635,5.8634,5.8636,5.8636,5.8635,5.8634,5.8634,5.8635,5.8631,5.8631,5.8634,5.8633,5.8629,5.8628,5.8628,5.8629,5.8625,5.8625,5.8625,5.8626,5.8626,5.8626,0,0,0,0,0,0,5.8634,5.8635,5.8636,5.8635,5.8635,5.8634,5.8635,5.8635,5.8634,5.8632,5.8631,5.8634,5.8629,5.8628,5.8627,5.8629,5.8625,5.8625,5.8626,5.8626,5.8626,5.8632,0,0,0,0,0,0,5.8634,5.8635,5.8635,5.8635,5.8635,5.8637,5.8635,5.8635,5.8635,5.8635,5.8631,5.8631,5.8628,5.8628,5.8627,5.8629,5.8625,5.8625,5.8626,5.8626,5.8631,5.8632,5.8633,0,0,0,0,0,5.8634,5.8635,5.8635,5.8636,5.8636,5.8637,5.8637,5.8636,5.8635,5.8635,5.8634,5.8631,5.8629,5.8628,5.8627,5.8628,5.8625,5.8626,5.8626,5.8631,5.8632,5.8633,0,0,0,0,0,0,5.8633,5.8635,5.8635,5.8636,5.8637,5.8637,5.8637,5.8636,5.8636,5.8635,5.8632,5.8632,5.8632,5.863,5.8629,5.863,5.8627,5.8627,5.8631,5.8632,5.8632,5.8633,5.8624,0,0,0,0,0,5.8633,5.8635,5.8636,5.8637,5.8638,5.8638,5.8638,5.8637,5.8637,5.8636,5.8635,5.8633,5.8633,5.8632,5.8631,5.8631,5.8631,5.8632,5.8633,5.8633,5.8633,5.8635,5.8636,5.8627,5.8627,5.8627,0,0,5.8633,5.8634,5.8635,5.8637,5.8637,5.8639,5.8637,5.8638,5.8639,5.8636,5.8636,5.8635,5.8634,5.8634,5.8634,5.8633,5.8636,5.8634,5.8634,5.8634,5.8636,5.8637,5.8637,5.8627,5.8627,5.8627,0,0,5.8633,5.8634,5.8636,5.8638,5.8639,5.864,5.864,5.8641,5.8641,5.8642,5.864,5.8641,5.8639,5.8639,5.8638,5.8642,5.864,5.8642,5.8645,5.8647,5.8648,5.8648,5.8651,5.8652,5.8642,5.8642,5.8642,0,5.8632,5.8635,5.8637,5.8639,5.864,5.864,5.8643,5.8643,5.8643,5.8644,5.8643,5.8643,5.8641,5.8643,5.8645,5.8644,5.8644,5.8642,5.8648,5.8648,5.8649,5.8651,5.8652,5.8642,5.8642,5.8642,5.8642,0,5.8635,5.8637,5.8638,5.8642,5.8643,5.8645,5.8647,5.8648,5.8648,5.8648,5.865,5.8649,5.8649,5.8649,5.8648,5.8651,5.8651,5.8649,5.8646,5.865,5.8652,5.8653,5.8643,5.8643,5.8643,5.8642,0,0,5.8632,5.8639,5.8639,5.8642,5.8645,5.8647,5.8649,5.8652,5.8653,5.8654,5.8656,5.8657,5.8656,5.8656,5.8654,5.8656,5.8661,5.8654,5.8654,5.8656,5.8666,5.8668,5.8669,5.866,5.866,5.8661,5.8667,0,5.8633,5.864,5.8642,5.8647,5.865,5.8651,5.8654,5.8656,5.8657,5.8659,5.8659,5.866,5.8658,5.8659,5.8661,5.866,5.8663,5.866,5.8662,5.8662,5.8663,5.867,5.8671,5.8677,5.8668,5.8668,5.8668,0,5.8635,5.8639,5.8645,5.8651,5.8652,5.8654,5.8658,5.866,5.8663,5.8663,5.8665,5.8665,5.8667,5.8665,5.8669,5.8666,5.8667,5.8668,5.8668,5.8668,5.8665,5.8671,5.8679,5.868,5.8669,5.8669,5.8669,0,5.8634,5.8641,5.8646,5.8648,5.8654,5.8656,5.8658,5.8661,5.8663,5.8666,5.8668,5.867,5.8671,5.8673,5.8673,5.8671,5.8677,5.8674,5.8678,5.8678,5.8678,5.8678,5.8688,5.8679,5.8679,5.8679,5.8679,0,5.8635,5.8639,5.8646,5.8649,5.8654,5.8657,5.8661,5.8663,5.8666,5.8669,5.867,5.8673,5.8673,5.8676,5.8676,5.868,5.868,5.8681,5.8681,5.8681,5.8681,5.8681,5.8681,5.8679,5.8679,5.8679,5.8679,0,5.8634,5.8639,5.8645,5.8652,5.8654,5.8657,5.8662,5.8665,5.8668,5.8672,5.8673,5.8676,5.868,5.8681,5.8684,5.8684,5.8689,5.8688,5.8689,5.8689,5.8693,5.8693,5.8703,5.8704,5.8694,5.8694,5.8694,0,5.8635,5.8638,5.8647,5.865,5.8654,5.8658,5.8662,5.8665,5.8669,5.8674,5.8676,5.8681,5.8684,5.869,5.8692,5.8695,5.8695,5.8698,5.8695,5.8696,5.8696,5.8696,5.8697,5.8698,5.8698,5.8698,5.8699,0,5.8636,5.8639,5.8645,5.8652,5.8656,5.8661,5.8666,5.8669,5.8673,5.8677,5.8682,5.8685,5.8691,5.8695,5.8699,5.8701,5.87,5.87,5.8701,5.8701,5.8702,5.8703,5.8691,5.8699,5.8699,5.8699,5.8699,5.8699,5.8636,5.864,5.8648,5.8654,5.8659,5.8665,5.8669,5.8673,5.8678,5.8685,5.8686,5.8692,5.8697,5.8703,5.8705,5.8709,5.8708,5.8709,5.8709,5.871,5.8711,5.8702,5.8709,5.8709,5.8709,5.8709,5.8709,0,5.8638,5.8644,5.865,5.8659,5.8664,5.8667,5.8673,5.8677,5.8683,5.8688,5.8693,5.87,5.8705,5.8709,5.8714,5.8716,5.8717,5.8718,5.8717,5.8718,5.8711,5.871,5.8718,5.8718,5.8718,5.8718,5.8718,5.8718,5.8639,5.8647,5.8652,5.8662,5.8667,5.8675,5.8679,5.8684,5.8689,5.8697,5.8702,5.8706,5.871,5.8717,5.8721,5.8722,5.8724,5.8726,5.8726,5.8719,5.8718,5.8717,5.8717,5.8726,5.8726,5.8734,5.8734,5.8734]}]]